EW6304 Weather Reports


Display with metric or nautical units.
time (UTC)temp
F
wind
direction
speed
MPH
gust
MPH
rain 1hr
in
rain 24hr
in
rain mn
in
humidity
%
barometer
mb
20260503012123 51 319 0.0 1.0 0.00 0.00 0.00 85 1009.4
20260503011629 51 319 0.0 1.0 0.00 0.00 0.00 85 1009.4
20260503011624 51 319 0.0 1.0 0.00 0.00 0.00 85 1009.4
20260503010628 51 319 0.0 1.0 0.00 0.00 0.00 84 1009.4
20260503010622 51 319 0.0 1.0 0.00 0.00 0.00 85 1009.4
20260503005619 51 319 0.0 1.0 0.00 0.00 0.00 84 1009.4
20260503005125 51 319 0.0 1.0 0.00 0.00 0.00 84 1009.2
20260503005119 51 319 0.0 1.0 0.00 0.00 0.00 84 1009.3
20260503004118 52 319 0.0 1.0 0.00 0.00 0.00 84 1009.2
20260503003617 52 319 0.0 1.0 0.00 0.00 0.00 84 1009.2
20260503003115 52 319 0.0 1.0 0.00 0.00 0.00 84 1009.2
20260503002615 52 319 0.0 1.0 0.00 0.00 0.00 83 1009.2
20260503002115 52 319 0.0 1.0 0.00 0.00 0.00 83 1009.1
20260503001616 52 319 0.0 1.0 0.00 0.00 0.00 83 1009.2
20260503001121 52 319 0.0 2.0 0.00 0.00 0.00 82 1009.3
20260503001116 52 319 0.0 1.0 0.00 0.00 0.00 83 1009.2
20260503000115 52 319 0.0 2.0 0.00 0.00 0.00 82 1009.2
20260502235617 52 317 0.0 2.0 0.00 0.00 0.00 82 1009.3
20260502235117 52 318 0.0 2.0 0.00 0.00 0.00 81 1009.2
20260502234616 52 318 0.0 1.0 0.00 0.00 0.00 82 1009.2
20260502234113 52 318 0.0 1.0 0.00 0.00 0.00 82 1009.3
20260502233613 52 318 0.0 1.0 0.00 0.00 0.00 81 1009.2
20260502233113 52 318 0.0 3.0 0.00 0.00 0.00 81 1009.1
20260502232614 53 318 0.0 3.0 0.00 0.00 0.00 80 1009.2
20260502232113 53 327 0.0 2.0 0.00 0.00 0.00 80 1009.3
20260502231614 53 327 1.0 3.0 0.00 0.00 0.00 80 1009.2
20260502231114 53 186 1.0 3.0 0.00 0.00 0.00 80 1009.3
20260502230620 53 186 1.0 4.0 0.00 0.00 0.00 80 1009.4
20260502230614 53 83 1.0 2.0 0.00 0.00 0.00 80 1009.3
20260502225614 53 186 1.0 4.0 0.00 0.00 0.00 80 1009.4
20260502225110 53 308 1.0 3.0 0.00 0.00 0.00 79 1009.3
20260502224618 53 296 1.0 2.0 0.00 0.00 0.00 79 1009.0
20260502224612 53 297 1.0 2.0 0.00 0.00 0.00 79 1009.2
20260502223619 54 146 1.0 2.0 0.00 0.00 0.00 79 1008.8
20260502223611 53 333 0.0 1.0 0.00 0.00 0.00 79 1009.0
20260502223111 53 333 0.0 3.0 0.00 0.00 0.00 79 1008.9
20260502222613 53 333 1.0 3.0 0.00 0.00 0.00 79 1008.9
20260502221612 54 146 0.0 2.0 0.00 0.00 0.00 78 1008.9
20260502221113 54 146 0.0 3.0 0.00 0.00 0.00 78 1008.9
20260502220610 54 146 1.0 3.0 0.00 0.00 0.00 77 1008.9
20260502220112 54 25 1.0 3.0 0.00 0.00 0.00 78 1008.9
20260502215610 54 355 1.0 2.0 0.00 0.00 0.00 77 1008.9
20260502215112 54 355 1.0 2.0 0.00 0.00 0.00 77 1008.9
20260502214619 54 355 0.0 3.0 0.00 0.00 0.00 77 1009.0
20260502214612 54 355 0.0 3.0 0.00 0.00 0.00 77 1008.9
20260502213614 54 355 1.0 3.0 0.00 0.00 0.00 77 1008.9
20260502213609 54 355 1.0 3.0 0.00 0.00 0.00 77 1008.9
20260502212609 54 355 1.0 2.0 0.00 0.00 0.00 76 1009.0
20260502212116 54 355 1.0 4.0 0.00 0.00 0.00 76 1008.9
20260502212110 54 355 1.0 3.0 0.00 0.00 0.00 76 1008.9
20260502211110 54 66 1.0 4.0 0.00 0.00 0.00 76 1008.9
20260502210610 54 124 1.0 3.0 0.00 0.00 0.00 76 1008.9
20260502210109 55 85 1.0 3.0 0.00 0.00 0.00 75 1009.0
20260502205608 55 49 1.0 3.0 0.00 0.00 0.00 76 1009.0
20260502205111 55 44 1.0 4.0 0.00 0.00 0.00 76 1009.0
20260502204609 55 46 1.0 4.0 0.00 0.00 0.00 76 1009.0
20260502204110 54 104 1.0 2.0 0.00 0.00 0.00 76 1009.0
20260502203615 54 102 1.0 2.0 0.00 0.00 0.00 75 1009.0
20260502203610 55 103 1.0 2.0 0.00 0.00 0.00 76 1009.0
20260502202611 54 355 1.0 2.0 0.00 0.00 0.00 75 1009.1
20260502202110 54 355 1.0 3.0 0.00 0.00 0.00 75 1009.2
20260502201608 54 355 1.0 3.0 0.00 0.00 0.00 75 1009.3
20260502201108 54 42 1.0 2.0 0.00 0.00 0.00 75 1009.3
20260502200609 54 40 1.0 3.0 0.00 0.00 0.00 75 1009.4
20260502200109 54 73 1.0 4.0 0.00 0.00 0.00 74 1009.4
20260502195609 54 101 1.0 4.0 0.00 0.00 0.00 73 1009.5
20260502195108 55 279 2.0 6.0 0.00 0.00 0.00 73 1009.6
20260502194609 55 317 2.0 6.0 0.00 0.00 0.00 72 1009.5
20260502194106 55 246 2.0 5.0 0.00 0.00 0.00 71 1009.6
20260502193606 56 64 1.0 4.0 0.00 0.00 0.00 71 1009.6
20260502193106 56 74 1.0 4.0 0.00 0.00 0.00 70 1009.7
20260502192608 56 65 1.0 4.0 0.00 0.00 0.00 67 1009.8
20260502192105 56 104 1.0 4.0 0.00 0.00 0.00 66 1009.7
20260502191604 57 128 1.0 6.0 0.00 0.00 0.00 65 1009.7
20260502191106 57 317 1.0 6.0 0.00 0.00 0.00 60 1009.7
20260502190605 57 32 2.0 6.0 0.00 0.00 0.00 61 1009.7
20260502185604 58 157 2.0 6.0 0.00 0.00 0.00 57 1009.6
20260502185102 58 80 2.0 6.0 0.00 0.00 0.00 59 1009.7
20260502184605 58 62 1.0 5.0 0.00 0.00 0.00 58 1009.6
20260502184103 57 133 1.0 4.0 0.00 0.00 0.00 57 1009.8
20260502183606 57 122 2.0 10.0 0.00 0.00 0.00 58 1009.9
20260502183602 57 15 1.0 4.0 0.00 0.00 0.00 58 1009.8
20260502183100 57 34 1.0 4.0 0.00 0.00 0.00 59 1009.8
20260502182059 57 9 2.0 10.0 0.00 0.00 0.00 60 1010.0
20260502181600 57 276 2.0 8.0 0.00 0.00 0.00 58 1010.2
20260502181058 58 285 2.0 8.0 0.00 0.00 0.00 57 1010.3
20260502180603 59 298 1.0 6.0 0.00 0.00 0.00 54 1010.4
20260502180559 58 267 2.0 6.0 0.00 0.00 0.00 53 1010.3
20260502164056 63 30 1.0 4.0 0.00 0.00 0.00 46 1009.7
20260502163555 62 34 2.0 10.0 0.00 0.00 0.00 46 1009.8
20260502163055 62 115 2.0 10.0 0.00 0.00 0.00 46 1009.9
20260502162555 61 302 2.0 9.0 0.00 0.00 0.00 54 1010.1
20260502162053 61 346 1.0 9.0 0.00 0.00 0.00 55 1009.9
20260502161555 61 42 1.0 4.0 0.00 0.00 0.00 56 1009.9
20260502161055 61 42 1.0 4.0 0.00 0.00 0.00 58 1009.8
20260502160552 61 42 1.0 4.0 0.00 0.00 0.00 59 1009.8
20260502152048 58 79 1.0 5.0 0.00 0.00 0.00 67 1010.6
20260502151548 58 328 1.0 2.0 0.00 0.00 0.00 68 1010.9
20260502151049 58 326 1.0 4.0 0.00 0.00 0.00 69 1010.9
20260502150548 58 329 1.0 4.0 0.00 0.00 0.00 69 1010.9
20260502130550 53 264 2.0 8.0 0.00 0.00 0.00 77 1011.4
20260502130545 53 221 2.0 8.0 0.00 0.00 0.00 78 1011.5
20260502123544 54 257 2.0 8.0 0.00 0.00 0.00 77 1011.4
20260502123044 54 208 2.0 7.0 0.00 0.00 0.00 78 1011.3
20260502122543 53 271 2.0 7.0 0.00 0.00 0.00 77 1011.2
20260502122051 53 58 2.0 6.0 0.00 0.00 0.00 79 1011.1
20260502122044 53 56 1.0 3.0 0.00 0.00 0.00 79 1011.1
20260502121050 52 0 1.0 4.0 0.00 0.00 0.00 80 1011.0
20260502121045 53 321 1.0 6.0 0.00 0.00 0.00 79 1011.1
20260502120704 51 60 0.0 2.0 0.00 0.00 0.00 81 1011.0
20260502115048 50 63 1.0 3.0 0.00 0.00 0.00 82 1010.7
20260502115044 51 59 0.0 2.0 0.00 0.00 0.00 82 1010.9
20260502114043 50 62 1.0 5.0 0.00 0.00 0.00 82 1010.8
20260502113544 50 62 1.0 5.0 0.00 0.00 0.00 83 1010.8
20260502113045 49 316 0.0 2.0 0.00 0.00 0.00 83 1011.0
20260502112542 49 317 0.0 2.0 0.00 0.00 0.00 83 1011.0
20260502112043 49 317 0.0 2.0 0.00 0.00 0.00 84 1010.9
20260502111541 49 317 0.0 2.0 0.00 0.00 0.00 85 1011.0
20260502111041 49 317 0.0 2.0 0.00 0.00 0.00 85 1010.9
20260502110546 48 316 0.0 2.0 0.00 0.00 0.00 86 1010.8
20260502110541 48 317 0.0 1.0 0.00 0.00 0.00 86 1010.9
20260502105541 48 316 1.0 2.0 0.00 0.00 0.00 87 1010.7
20260502105041 47 317 1.0 2.0 0.00 0.00 0.00 88 1010.8
20260502104541 47 316 0.0 2.0 0.00 0.00 0.00 89 1010.9
20260502104043 47 316 0.0 2.0 0.00 0.00 0.00 89 1010.9
20260502103542 46 317 1.0 2.0 0.00 0.00 0.00 89 1010.8
20260502103042 45 317 1.0 2.0 0.00 0.00 0.00 89 1010.5
20260502102540 45 316 0.0 2.0 0.00 0.00 0.00 89 1011.0
20260502102040 44 316 0.0 1.0 0.00 0.00 0.00 89 1010.7
20260502101538 44 316 0.0 1.0 0.00 0.00 0.00 89 1010.6
20260502101040 44 317 0.0 1.0 0.00 0.00 0.00 89 1010.6
20260502100540 44 317 0.0 1.0 0.00 0.00 0.00 88 1010.6
20260502091042 43 316 0.0 1.0 0.00 0.00 0.00 88 1010.5
20260502091036 43 316 0.0 1.0 0.00 0.00 0.00 88 1010.5
20260502071528 44 317 0.0 0.0 0.00 0.00 0.00 83 1010.5
20260502071030 44 316 0.0 0.0 0.00 0.00 0.00 83 1010.5
20260502070528 44 316 0.0 0.0 0.00 0.00 0.00 83 1010.5
20260502070029 44 317 0.0 0.0 0.00 0.00 0.00 83 1010.5
20260502065535 43 317 0.0 1.0 0.00 0.00 0.00 83 1010.5
20260502065530 43 317 0.0 1.0 0.00 0.00 0.00 83 1010.4
20260502065145 43 317 0.0 1.0 0.00 0.00 0.00 83 1010.5
20260502064031 43 317 0.0 0.0 0.00 0.00 0.00 82 1010.5
20260502063530 43 317 0.0 0.0 0.00 0.00 0.00 81 1010.5
20260502063030 43 317 0.0 0.0 0.00 0.00 0.00 81 1010.5
20260502062528 43 317 0.0 0.0 0.00 0.00 0.00 81 1010.6
20260502062036 43 317 0.0 0.0 0.00 0.00 0.00 80 1010.5
20260502062031 43 317 0.0 0.0 0.00 0.00 0.00 81 1010.5
20260502061029 43 317 0.0 1.0 0.00 0.00 0.00 80 1010.6
20260502060528 43 317 0.0 1.0 0.00 0.00 0.00 79 1010.6
20260502060028 44 317 0.0 0.0 0.00 0.00 0.00 79 1010.7
20260502055526 44 317 0.0 0.0 0.00 0.00 0.00 79 1010.6
20260502055026 44 317 0.0 0.0 0.00 0.00 0.00 78 1010.7
20260502054527 44 317 0.0 0.0 0.00 0.00 0.00 78 1010.8
20260502054026 44 317 0.0 0.0 0.00 0.00 0.00 78 1010.7
20260502053525 44 317 0.0 0.0 0.00 0.00 0.00 78 1010.7
20260502053027 44 317 0.0 0.0 0.00 0.00 0.00 78 1010.7
20260502052525 45 317 0.0 0.0 0.00 0.00 0.00 77 1010.7
20260502052023 45 317 0.0 0.0 0.00 0.00 0.00 77 1010.7
20260502051522 45 317 0.0 1.0 0.00 0.00 0.00 77 1010.7
20260502051024 45 317 0.0 1.0 0.00 0.00 0.00 77 1010.7
20260502050524 45 317 0.0 1.0 0.00 0.00 0.00 77 1010.7
20260502050022 45 317 0.0 1.0 0.00 0.00 0.00 77 1010.7
20260502045524 45 317 0.0 0.0 0.00 0.00 0.00 76 1010.7
20260502045022 45 0 0.0 0.0 0.00 0.00 0.00 76 1010.8
20260502044522 45 316 0.0 1.0 0.00 0.00 0.00 76 1010.8
20260502044021 45 317 0.0 1.0 0.00 0.00 0.00 76 1010.8
20260502043521 45 316 0.0 0.0 0.00 0.00 0.00 76 1010.8
20260502043019 45 316 0.0 0.0 0.00 0.00 0.00 76 1010.7
20260502042519 45 316 0.0 0.0 0.00 0.00 0.00 75 1010.7
20260502042019 45 316 0.0 0.0 0.00 0.00 0.00 75 1010.7
20260502041516 46 316 0.0 0.0 0.00 0.00 0.00 75 1010.8
20260502041018 46 316 0.0 0.0 0.00 0.00 0.00 74 1010.8
20260502040521 46 317 0.0 1.0 0.00 0.00 0.00 73 1010.8
20260502040516 46 316 0.0 1.0 0.00 0.00 0.00 74 1010.8
20260502035516 47 316 0.0 0.0 0.00 0.00 0.00 73 1010.7
20260502035017 47 316 0.0 0.0 0.00 0.00 0.00 72 1010.8
20260502035012 47 316 0.0 0.0 0.00 0.00 0.00 73 1010.8
20260502034632 47 316 0.0 1.0 0.00 0.00 0.00 72 1010.7
20260502033519 47 317 0.0 1.0 0.00 0.00 0.00 72 1010.7
20260502033513 47 317 0.0 1.0 0.00 0.00 0.00 73 1010.8
20260502032519 47 317 0.0 1.0 0.00 0.00 0.00 71 1010.6
20260502032514 47 317 0.0 1.0 0.00 0.00 0.00 71 1010.7
20260502031511 47 316 0.0 1.0 0.00 0.00 0.00 72 1010.6
20260502031013 47 316 0.0 1.0 0.00 0.00 0.00 72 1010.5
20260502030513 47 316 0.0 1.0 0.00 0.00 0.00 72 1010.5
20260502030015 47 317 0.0 0.0 0.00 0.00 0.00 73 1010.5
20260502030011 47 316 0.0 1.0 0.00 0.00 0.00 72 1010.5
20260502025010 47 317 0.0 1.0 0.00 0.00 0.00 73 1010.4
20260502024510 47 317 0.0 1.0 0.00 0.00 0.00 74 1010.4
20260502024010 47 317 0.0 0.0 0.00 0.00 0.00 74 1010.5
20260502023511 47 317 0.0 0.0 0.00 0.00 0.00 73 1010.4
20260502023011 47 317 0.0 0.0 0.00 0.00 0.00 74 1010.4
20260502022509 47 317 0.0 0.0 0.00 0.00 0.00 74 1010.4
20260502022010 47 317 0.0 0.0 0.00 0.00 0.00 73 1010.3
20260502021510 47 317 0.0 0.0 0.00 0.00 0.00 73 1010.3
20260502021010 47 317 0.0 0.0 0.00 0.00 0.00 73 1010.2
20260502020515 48 317 0.0 0.0 0.00 0.00 0.00 73 1010.2
20260502020510 48 317 0.0 0.0 0.00 0.00 0.00 74 1010.2
20260502015508 48 317 0.0 0.0 0.00 0.00 0.00 68 1010.2
20260502015008 48 317 0.0 0.0 0.00 0.00 0.00 68 1010.3
20260502014507 49 0 0.0 0.0 0.00 0.00 0.00 70 1010.3
20260502014007 49 317 0.0 0.0 0.00 0.00 0.00 70 1010.3
20260502013508 49 317 0.0 0.0 0.00 0.00 0.00 71 1010.2
20260502013008 50 317 0.0 0.0 0.00 0.00 0.00 69 1010.2
20260502012506 50 317 0.0 0.0 0.00 0.00 0.00 69 1010.2